Year,Month,Day,Hour,Minute,Value (Times are PST for temperature in C)
2012,08,03,00,00,16.10
2012,08,03,00,01,16.10
2012,08,03,00,03,16.10
2012,08,03,00,04,16.10
2012,08,03,00,06,16.10
2012,08,03,00,07,16.00
2012,08,03,00,08,16.00
2012,08,03,00,09,16.00
2012,08,03,00,10,16.00
2012,08,03,00,11,16.00
2012,08,03,00,12,16.00
2012,08,03,00,13,16.00
2012,08,03,00,14,15.90
2012,08,03,00,15,15.90
2012,08,03,00,16,15.90
2012,08,03,00,17,15.90
2012,08,03,00,18,15.90
2012,08,03,00,19,15.90
2012,08,03,00,20,15.90
2012,08,03,00,21,15.90
2012,08,03,00,22,15.90
2012,08,03,00,23,15.90
2012,08,03,00,24,16.00
2012,08,03,00,25,16.00
2012,08,03,00,26,16.00
2012,08,03,00,27,16.00
2012,08,03,00,28,16.00
2012,08,03,00,30,16.00
2012,08,03,00,31,16.00
2012,08,03,00,32,16.00
2012,08,03,00,33,16.00
2012,08,03,00,34,16.00
2012,08,03,00,35,16.00
2012,08,03,00,37,15.90
2012,08,03,00,38,15.90
2012,08,03,00,39,15.90
2012,08,03,00,40,15.90
2012,08,03,00,41,15.80
2012,08,03,00,42,15.80
2012,08,03,00,43,15.80
2012,08,03,00,44,15.80
2012,08,03,00,45,15.80
2012,08,03,00,46,15.80
2012,08,03,00,47,15.80
2012,08,03,00,48,15.80
2012,08,03,00,49,15.80
2012,08,03,00,50,15.80
2012,08,03,00,51,15.70
2012,08,03,00,52,15.80
2012,08,03,00,53,15.70
2012,08,03,00,54,15.70
2012,08,03,00,55,15.70
2012,08,03,00,56,15.70
2012,08,03,00,57,15.70
2012,08,03,00,58,15.70
2012,08,03,01,00,15.60
2012,08,03,01,01,15.60
2012,08,03,01,02,15.60
2012,08,03,01,03,15.50
2012,08,03,01,04,15.50
2012,08,03,01,05,15.40
2012,08,03,01,07,15.40
2012,08,03,01,08,15.40
2012,08,03,01,10,15.40
2012,08,03,01,11,15.40
2012,08,03,01,13,15.30
2012,08,03,01,14,15.30
2012,08,03,01,15,15.30
2012,08,03,01,16,15.30
2012,08,03,01,17,15.30
2012,08,03,01,18,15.30
2012,08,03,01,20,15.30
2012,08,03,01,21,15.30
2012,08,03,01,22,15.30
2012,08,03,01,23,15.30
2012,08,03,01,24,15.30
2012,08,03,01,25,15.30
2012,08,03,01,26,15.20
2012,08,03,01,28,15.20
2012,08,03,01,29,15.20
2012,08,03,01,30,15.20
2012,08,03,01,31,15.20
2012,08,03,01,32,15.10
2012,08,03,01,33,15.10
2012,08,03,01,34,15.00
2012,08,03,01,35,15.00
2012,08,03,01,36,15.00
2012,08,03,01,38,15.00
2012,08,03,01,40,15.00
2012,08,03,01,41,15.00
2012,08,03,01,42,15.00
2012,08,03,01,44,15.00
2012,08,03,01,45,15.00
2012,08,03,01,46,15.00
2012,08,03,01,48,14.90
2012,08,03,01,49,14.90
2012,08,03,01,50,14.90
2012,08,03,01,52,14.80
2012,08,03,01,53,14.80
2012,08,03,01,54,14.80
2012,08,03,01,55,14.80
2012,08,03,01,56,14.80
2012,08,03,01,57,14.80
2012,08,03,01,58,14.80
2012,08,03,01,59,14.80
2012,08,03,02,00,14.80
2012,08,03,02,01,14.80
2012,08,03,02,02,14.80
2012,08,03,02,03,14.80
2012,08,03,02,04,14.70
2012,08,03,02,05,14.70
2012,08,03,02,07,14.70
2012,08,03,02,08,14.70
2012,08,03,02,09,14.70
2012,08,03,02,10,14.70
2012,08,03,02,11,14.70
2012,08,03,02,12,14.70
2012,08,03,02,13,14.70
2012,08,03,02,15,14.70
2012,08,03,02,16,14.70
2012,08,03,02,17,14.70
2012,08,03,02,18,14.70
2012,08,03,02,19,14.70
2012,08,03,02,20,14.70
2012,08,03,02,21,14.70
2012,08,03,02,22,14.70
2012,08,03,02,23,14.60
2012,08,03,02,24,14.60
2012,08,03,02,25,14.60
2012,08,03,02,27,14.60
2012,08,03,02,28,14.60
2012,08,03,02,29,14.50
2012,08,03,02,30,14.50
2012,08,03,02,31,14.40
2012,08,03,02,32,14.40
2012,08,03,02,33,14.40
2012,08,03,02,34,14.30
2012,08,03,02,35,14.30
2012,08,03,02,36,14.30
2012,08,03,02,37,14.30
2012,08,03,02,38,14.30
2012,08,03,02,39,14.30
2012,08,03,02,40,14.20
2012,08,03,02,42,14.20
2012,08,03,02,43,14.20
2012,08,03,02,44,14.20
2012,08,03,02,45,14.10
2012,08,03,02,46,14.10
2012,08,03,02,47,14.10
2012,08,03,02,48,14.00
2012,08,03,02,49,14.00
2012,08,03,02,50,13.90
2012,08,03,02,51,13.90
2012,08,03,02,52,13.90
2012,08,03,02,54,13.90
2012,08,03,02,55,13.90
2012,08,03,02,56,13.90
2012,08,03,02,58,13.80
2012,08,03,03,00,13.80
2012,08,03,03,02,13.80
2012,08,03,03,03,13.80
2012,08,03,03,04,13.80
2012,08,03,03,06,13.80
2012,08,03,03,07,13.80
2012,08,03,03,08,13.80
2012,08,03,03,09,13.80
2012,08,03,03,10,13.80
2012,08,03,03,11,13.80
2012,08,03,03,12,13.80
2012,08,03,03,13,13.80
2012,08,03,03,14,13.80
2012,08,03,03,16,13.80
2012,08,03,03,17,13.80
2012,08,03,03,18,13.80
2012,08,03,03,19,13.70
2012,08,03,03,20,13.70
2012,08,03,03,21,13.70
2012,08,03,03,22,13.70
2012,08,03,03,23,13.70
2012,08,03,03,24,13.70
2012,08,03,03,25,13.70
2012,08,03,03,26,13.70
2012,08,03,03,27,13.70
2012,08,03,03,28,13.60
2012,08,03,03,29,13.60
2012,08,03,03,30,13.60
2012,08,03,03,32,13.60
2012,08,03,03,33,13.60
2012,08,03,03,34,13.50
2012,08,03,03,35,13.50
2012,08,03,03,37,13.40
2012,08,03,03,38,13.40
2012,08,03,03,40,13.40
2012,08,03,03,41,13.40
2012,08,03,03,42,13.40
2012,08,03,03,43,13.30
2012,08,03,03,44,13.30
2012,08,03,03,45,13.30
2012,08,03,03,46,13.30
2012,08,03,03,47,13.30
2012,08,03,03,48,13.30
2012,08,03,03,49,13.30
2012,08,03,03,50,13.20
2012,08,03,03,51,13.20
2012,08,03,03,52,13.20
2012,08,03,03,53,13.20
2012,08,03,03,54,13.20
2012,08,03,03,55,13.20
2012,08,03,03,56,13.20
2012,08,03,03,57,13.20
2012,08,03,03,58,13.10
2012,08,03,04,00,13.10
2012,08,03,04,02,13.10
2012,08,03,04,04,13.10
2012,08,03,04,05,13.10
2012,08,03,04,07,13.10
2012,08,03,04,08,13.10
2012,08,03,04,09,13.00
2012,08,03,04,10,13.00
2012,08,03,04,11,13.00
2012,08,03,04,12,13.00
2012,08,03,04,13,13.00
2012,08,03,04,14,12.90
2012,08,03,04,15,12.90
2012,08,03,04,16,12.90
2012,08,03,04,17,12.90
2012,08,03,04,18,12.90
2012,08,03,04,19,12.90
2012,08,03,04,21,12.90
2012,08,03,04,22,12.90
2012,08,03,04,24,12.80
2012,08,03,04,25,12.80
2012,08,03,04,26,12.80
2012,08,03,04,27,12.80
2012,08,03,04,28,12.80
2012,08,03,04,29,12.80
2012,08,03,04,30,12.80
2012,08,03,04,31,12.80
2012,08,03,04,32,12.80
2012,08,03,04,33,12.80
2012,08,03,04,34,12.80
2012,08,03,04,35,12.80
2012,08,03,04,36,12.80
2012,08,03,04,37,12.80
2012,08,03,04,38,12.80
2012,08,03,04,39,12.80
2012,08,03,04,40,12.80
2012,08,03,04,42,12.80
2012,08,03,04,43,12.80
2012,08,03,04,44,12.80
2012,08,03,04,45,12.80
2012,08,03,04,46,12.70
2012,08,03,04,48,12.70
2012,08,03,04,49,12.70
2012,08,03,04,50,12.70
2012,08,03,04,52,12.70
2012,08,03,04,53,12.70
2012,08,03,04,54,12.70
2012,08,03,04,55,12.70
2012,08,03,04,57,12.60
2012,08,03,04,58,12.60
2012,08,03,05,00,12.60
2012,08,03,05,01,12.60
2012,08,03,05,02,12.60
2012,08,03,05,04,12.60
2012,08,03,05,05,12.50
2012,08,03,05,07,12.50
2012,08,03,05,08,12.40
2012,08,03,05,09,12.40
2012,08,03,05,10,12.40
2012,08,03,05,11,12.40
2012,08,03,05,12,12.40
2012,08,03,05,13,12.40
2012,08,03,05,14,12.40
2012,08,03,05,15,12.40
2012,08,03,05,16,12.30
2012,08,03,05,17,12.30
2012,08,03,05,18,12.30
2012,08,03,05,19,12.30
2012,08,03,05,20,12.30
2012,08,03,05,21,12.30
2012,08,03,05,22,12.30
2012,08,03,05,23,12.30
2012,08,03,05,24,12.30
2012,08,03,05,25,12.30
2012,08,03,05,26,12.30
2012,08,03,05,27,12.30
2012,08,03,05,28,12.30
2012,08,03,05,29,12.30
2012,08,03,05,30,12.30
2012,08,03,05,31,12.30
2012,08,03,05,32,12.30
2012,08,03,05,33,12.30
2012,08,03,05,34,12.30
2012,08,03,05,35,12.30
2012,08,03,05,36,12.30
2012,08,03,05,37,12.30
2012,08,03,05,38,12.30
2012,08,03,05,39,12.30
2012,08,03,05,40,12.30
2012,08,03,05,41,12.30
2012,08,03,05,42,12.30
2012,08,03,05,44,12.30
2012,08,03,05,45,12.30
2012,08,03,05,46,12.30
2012,08,03,05,47,12.30
2012,08,03,05,48,12.30
2012,08,03,05,49,12.30
2012,08,03,05,50,12.30
2012,08,03,05,51,12.30
2012,08,03,05,52,12.30
2012,08,03,05,53,12.30
2012,08,03,05,54,12.30
2012,08,03,05,55,12.30
2012,08,03,05,56,12.30
2012,08,03,05,58,12.30
2012,08,03,05,59,12.30
2012,08,03,06,00,12.30
2012,08,03,06,02,12.30
2012,08,03,06,03,12.30
2012,08,03,06,04,12.30
2012,08,03,06,05,12.30
2012,08,03,06,06,12.20
2012,08,03,06,07,12.20
2012,08,03,06,08,12.20
2012,08,03,06,09,12.20
2012,08,03,06,10,12.20
2012,08,03,06,11,12.20
2012,08,03,06,12,12.20
2012,08,03,06,13,12.20
2012,08,03,06,14,12.20
2012,08,03,06,15,12.20
2012,08,03,06,16,12.20
2012,08,03,06,17,12.20
2012,08,03,06,18,12.20
2012,08,03,06,20,12.20
2012,08,03,06,21,12.20
2012,08,03,06,22,12.20
2012,08,03,06,23,12.20
2012,08,03,06,24,12.20
2012,08,03,06,26,12.20
2012,08,03,06,27,12.20
2012,08,03,06,28,12.20
2012,08,03,06,29,12.20
2012,08,03,06,30,12.20
2012,08,03,06,31,12.20
2012,08,03,06,32,12.20
2012,08,03,06,34,12.20
2012,08,03,06,35,12.20
2012,08,03,06,36,12.20
2012,08,03,06,37,12.20
2012,08,03,06,38,12.20
2012,08,03,06,39,12.20
2012,08,03,06,40,12.20
2012,08,03,06,41,12.20
2012,08,03,06,42,12.20
2012,08,03,06,43,12.20
2012,08,03,06,44,12.20
2012,08,03,06,45,12.20
2012,08,03,06,46,12.20
2012,08,03,06,47,12.20
2012,08,03,06,48,12.20
2012,08,03,06,49,12.20
2012,08,03,06,50,12.20
2012,08,03,06,51,12.20
2012,08,03,06,52,12.30
2012,08,03,06,53,12.30
2012,08,03,06,54,12.30
2012,08,03,06,55,12.30
2012,08,03,06,56,12.30
2012,08,03,06,57,12.40
2012,08,03,06,58,12.40
2012,08,03,06,59,12.40
2012,08,03,07,00,12.50
2012,08,03,07,02,12.60
2012,08,03,07,03,12.60
2012,08,03,07,04,12.60
2012,08,03,07,05,12.70
2012,08,03,07,06,12.70
2012,08,03,07,07,12.70
2012,08,03,07,08,12.70
2012,08,03,07,09,12.80
2012,08,03,07,10,12.80
2012,08,03,07,11,12.80
2012,08,03,07,12,12.90
2012,08,03,07,13,12.90
2012,08,03,07,14,13.00
2012,08,03,07,15,13.10
2012,08,03,07,16,13.10
2012,08,03,07,17,13.20
2012,08,03,07,18,13.20
2012,08,03,07,19,13.20
2012,08,03,07,20,13.30
2012,08,03,07,21,13.30
2012,08,03,07,22,13.40
2012,08,03,07,23,13.40
2012,08,03,07,24,13.50
2012,08,03,07,25,13.50
2012,08,03,07,26,13.60
2012,08,03,07,27,13.60
2012,08,03,07,28,13.70
2012,08,03,07,29,13.70
2012,08,03,07,30,13.80
2012,08,03,07,31,13.80
2012,08,03,07,32,13.90
2012,08,03,07,33,13.90
2012,08,03,07,34,13.90
2012,08,03,07,35,14.00
2012,08,03,07,36,14.10
2012,08,03,07,37,14.10
2012,08,03,07,39,14.20
2012,08,03,07,41,14.30
2012,08,03,07,42,14.30
2012,08,03,07,44,14.40
2012,08,03,07,45,14.40
2012,08,03,07,46,14.50
2012,08,03,07,48,14.60
2012,08,03,07,49,14.60
2012,08,03,07,50,14.70
2012,08,03,07,52,14.90
2012,08,03,07,53,15.00
2012,08,03,07,55,15.00
2012,08,03,07,56,15.00
2012,08,03,07,58,15.10
2012,08,03,07,59,15.20
2012,08,03,08,00,15.20
2012,08,03,08,01,15.30
2012,08,03,08,02,15.30
2012,08,03,08,03,15.40
2012,08,03,08,04,15.40
2012,08,03,08,05,15.40
2012,08,03,08,07,15.40
2012,08,03,08,08,15.50
2012,08,03,08,09,15.50
2012,08,03,08,10,15.50
2012,08,03,08,12,15.60
2012,08,03,08,13,15.60
2012,08,03,08,14,15.70
2012,08,03,08,16,15.80
2012,08,03,08,17,15.80
2012,08,03,08,19,15.90
2012,08,03,08,21,16.00
2012,08,03,08,22,16.10
2012,08,03,08,23,16.10
2012,08,03,08,24,16.10
2012,08,03,08,25,16.20
2012,08,03,08,26,16.20
2012,08,03,08,27,16.20
2012,08,03,08,28,16.20
2012,08,03,08,29,16.10
2012,08,03,08,30,16.10
2012,08,03,08,31,16.10
2012,08,03,08,32,16.10
2012,08,03,08,33,16.10
2012,08,03,08,34,16.20
2012,08,03,08,35,16.20
2012,08,03,08,36,16.20
2012,08,03,08,37,16.20
2012,08,03,08,38,16.20
2012,08,03,08,39,16.30
2012,08,03,08,40,16.30
2012,08,03,08,41,16.30
2012,08,03,08,42,16.30
2012,08,03,08,43,16.30
2012,08,03,08,44,16.30
2012,08,03,08,45,16.30
2012,08,03,08,46,16.40
2012,08,03,08,47,16.40
2012,08,03,08,48,16.50
2012,08,03,08,49,16.60
2012,08,03,08,50,16.60
2012,08,03,08,51,16.60
2012,08,03,08,53,16.70
2012,08,03,08,54,16.70
2012,08,03,08,55,16.80
2012,08,03,08,56,16.80
2012,08,03,08,57,16.80
2012,08,03,08,58,16.80
2012,08,03,08,59,16.90
2012,08,03,09,00,16.90
2012,08,03,09,01,16.90
2012,08,03,09,02,17.00
2012,08,03,09,03,17.10
2012,08,03,09,04,17.20
2012,08,03,09,05,17.20
2012,08,03,09,06,17.30
2012,08,03,09,07,17.30
2012,08,03,09,08,17.40
2012,08,03,09,09,17.50
2012,08,03,09,10,17.60
2012,08,03,09,11,17.70
2012,08,03,09,12,17.70
2012,08,03,09,13,17.80
2012,08,03,09,14,17.80
2012,08,03,09,15,17.80
2012,08,03,09,17,17.80
2012,08,03,09,18,17.90
2012,08,03,09,19,17.80
2012,08,03,09,20,17.80
2012,08,03,09,21,17.80
2012,08,03,09,22,17.80
2012,08,03,09,23,17.80
2012,08,03,09,24,17.90
2012,08,03,09,25,17.90
2012,08,03,09,26,18.00
2012,08,03,09,27,18.10
2012,08,03,09,28,18.20
2012,08,03,09,29,18.30
2012,08,03,09,30,18.30
2012,08,03,09,32,18.40
2012,08,03,09,33,18.40
2012,08,03,09,34,18.40
2012,08,03,09,35,18.40
2012,08,03,09,36,18.40
2012,08,03,09,37,18.40
2012,08,03,09,38,18.40
2012,08,03,09,39,18.50
2012,08,03,09,40,18.50
2012,08,03,09,41,18.60
2012,08,03,09,42,18.60
2012,08,03,09,43,18.60
2012,08,03,09,44,18.60
2012,08,03,09,45,18.70
2012,08,03,09,46,18.80
2012,08,03,09,47,18.80
2012,08,03,09,48,18.90
2012,08,03,09,49,18.90
2012,08,03,09,50,18.90
2012,08,03,09,51,18.90
2012,08,03,09,52,18.90
2012,08,03,09,53,18.90
2012,08,03,09,54,18.90
2012,08,03,09,55,19.00
2012,08,03,09,56,19.10
2012,08,03,09,57,19.10
2012,08,03,09,59,19.20
2012,08,03,10,00,19.20
2012,08,03,10,01,19.20
2012,08,03,10,02,19.20
2012,08,03,10,04,19.30
2012,08,03,10,05,19.30
2012,08,03,10,06,19.40
2012,08,03,10,07,19.50
2012,08,03,10,09,19.60
2012,08,03,10,10,19.60
2012,08,03,10,11,19.70
2012,08,03,10,13,19.70
2012,08,03,10,15,19.70
2012,08,03,10,16,19.80
2012,08,03,10,18,19.90
2012,08,03,10,19,19.90
2012,08,03,10,20,19.90
2012,08,03,10,21,20.00
2012,08,03,10,22,20.00
2012,08,03,10,23,20.10
2012,08,03,10,24,20.10
2012,08,03,10,25,20.10
2012,08,03,10,26,20.20
2012,08,03,10,27,20.20
2012,08,03,10,28,20.20
2012,08,03,10,29,20.20
2012,08,03,10,30,20.30
2012,08,03,10,31,20.30
2012,08,03,10,32,20.30
2012,08,03,10,33,20.40
2012,08,03,10,34,20.40
2012,08,03,10,35,20.40
2012,08,03,10,36,20.50
2012,08,03,10,37,20.50
2012,08,03,10,38,20.60
2012,08,03,10,39,20.60
2012,08,03,10,40,20.60
2012,08,03,10,41,20.70
2012,08,03,10,42,20.70
2012,08,03,10,43,20.80
2012,08,03,10,44,20.90
2012,08,03,10,45,21.00
2012,08,03,10,46,21.10
2012,08,03,10,47,21.20
2012,08,03,10,48,21.20
2012,08,03,10,49,21.30
2012,08,03,10,50,21.40
2012,08,03,10,51,21.50
2012,08,03,10,52,21.60
2012,08,03,10,53,21.70
2012,08,03,10,54,21.90
2012,08,03,10,55,22.00
2012,08,03,10,56,22.10
2012,08,03,10,57,22.20
2012,08,03,10,58,22.30
2012,08,03,10,59,22.30
2012,08,03,11,00,22.30
2012,08,03,11,01,22.30
2012,08,03,11,02,22.30
2012,08,03,11,03,22.30
2012,08,03,11,04,22.30
2012,08,03,11,05,22.30
2012,08,03,11,06,22.30
2012,08,03,11,07,22.30
2012,08,03,11,08,22.40
2012,08,03,11,09,22.40
2012,08,03,11,10,22.40
2012,08,03,11,11,22.40
2012,08,03,11,12,22.40
2012,08,03,11,13,22.30
2012,08,03,11,14,22.30
2012,08,03,11,15,22.30
2012,08,03,11,16,22.30
2012,08,03,11,17,22.30
2012,08,03,11,18,22.30
2012,08,03,11,19,22.30
2012,08,03,11,20,22.40
2012,08,03,11,21,22.40
2012,08,03,11,22,22.40
2012,08,03,11,23,22.40
2012,08,03,11,24,22.50
2012,08,03,11,25,22.60
2012,08,03,11,26,22.60
2012,08,03,11,27,22.60
2012,08,03,11,28,22.60
2012,08,03,11,30,22.70
2012,08,03,11,31,22.70
2012,08,03,11,32,22.80
2012,08,03,11,33,22.90
2012,08,03,11,34,22.90
2012,08,03,11,35,22.90
2012,08,03,11,36,23.00
2012,08,03,11,37,23.00
2012,08,03,11,38,23.10
2012,08,03,11,39,23.10
2012,08,03,11,41,23.20
2012,08,03,11,43,23.40
2012,08,03,11,44,23.50
2012,08,03,11,46,23.60
2012,08,03,11,47,23.50
2012,08,03,11,49,23.50
2012,08,03,11,50,23.40
2012,08,03,11,52,23.50
2012,08,03,11,53,23.60
2012,08,03,11,54,23.60
2012,08,03,11,55,23.70
2012,08,03,11,56,23.80
2012,08,03,11,57,23.80
2012,08,03,11,58,23.80
2012,08,03,11,59,23.80
2012,08,03,12,00,23.80
2012,08,03,12,02,23.80
2012,08,03,12,03,23.80
2012,08,03,12,04,23.80
2012,08,03,12,05,23.90
2012,08,03,12,06,23.90
2012,08,03,12,07,23.90
2012,08,03,12,10,24.00
2012,08,03,12,15,24.30
2012,08,03,12,16,24.40
2012,08,03,12,17,24.40
2012,08,03,12,18,24.40
2012,08,03,12,20,24.40
2012,08,03,12,21,24.40
2012,08,03,12,22,24.40
2012,08,03,12,23,24.40
2012,08,03,12,24,24.50
2012,08,03,12,25,24.60
2012,08,03,12,26,24.70
2012,08,03,12,27,24.70
2012,08,03,12,29,24.70
2012,08,03,12,30,24.80
2012,08,03,12,32,24.80
2012,08,03,12,33,24.80
2012,08,03,12,34,24.80
2012,08,03,12,36,24.90
2012,08,03,12,37,24.90
2012,08,03,12,38,24.90
2012,08,03,12,39,25.00
2012,08,03,12,41,25.00
2012,08,03,12,42,25.00
2012,08,03,12,43,25.10
2012,08,03,12,45,25.20
2012,08,03,12,46,25.30
2012,08,03,12,47,25.30
2012,08,03,12,49,25.40
2012,08,03,12,50,25.40
2012,08,03,12,51,25.50
2012,08,03,12,53,25.50
2012,08,03,12,54,25.60
2012,08,03,12,55,25.70
2012,08,03,12,56,25.70
2012,08,03,12,57,25.80
2012,08,03,12,58,25.80
2012,08,03,13,00,25.90
2012,08,03,13,01,25.90
2012,08,03,13,02,25.90
2012,08,03,13,04,26.10
2012,08,03,13,05,26.20
2012,08,03,13,06,26.20
2012,08,03,13,07,26.20
2012,08,03,13,08,26.30
2012,08,03,13,09,26.30
2012,08,03,13,10,26.30
2012,08,03,13,11,26.40
2012,08,03,13,12,26.40
2012,08,03,13,13,26.50
2012,08,03,13,14,26.60
2012,08,03,13,16,26.70
2012,08,03,13,17,26.70
2012,08,03,13,18,26.70
2012,08,03,13,20,26.80
2012,08,03,13,21,26.80
2012,08,03,13,22,26.80
2012,08,03,13,24,27.00
2012,08,03,13,25,27.10
2012,08,03,13,26,27.20
2012,08,03,13,28,27.40
2012,08,03,13,29,27.40
2012,08,03,13,30,27.60
2012,08,03,13,31,27.60
2012,08,03,13,33,27.60
2012,08,03,13,34,27.60
2012,08,03,13,35,27.60
2012,08,03,13,36,27.60
2012,08,03,13,37,27.60
2012,08,03,13,38,27.60
2012,08,03,13,39,27.50
2012,08,03,13,40,27.40
2012,08,03,13,41,27.40
2012,08,03,13,42,27.40
2012,08,03,13,43,27.40
2012,08,03,13,44,27.50
2012,08,03,13,45,27.60
2012,08,03,13,46,27.60
2012,08,03,13,47,27.70
2012,08,03,13,48,27.70
2012,08,03,13,49,27.80
2012,08,03,13,50,27.80
2012,08,03,13,51,27.80
2012,08,03,13,52,27.80
2012,08,03,13,53,27.70
2012,08,03,13,54,27.70
2012,08,03,13,56,27.60
2012,08,03,13,58,27.60
2012,08,03,13,59,27.60
2012,08,03,14,00,27.60
2012,08,03,14,01,27.70
2012,08,03,14,02,27.80
2012,08,03,14,03,27.80
2012,08,03,14,04,27.70
2012,08,03,14,05,27.70
2012,08,03,14,06,27.70
2012,08,03,14,07,27.60
2012,08,03,14,08,27.60
2012,08,03,14,09,27.60
2012,08,03,14,10,27.60
2012,08,03,14,11,27.60
2012,08,03,14,12,27.50
2012,08,03,14,14,27.50
2012,08,03,14,15,27.60
2012,08,03,14,16,27.60
2012,08,03,14,18,27.60
2012,08,03,14,19,27.60
2012,08,03,14,20,27.60
2012,08,03,14,21,27.60
2012,08,03,14,23,27.70
2012,08,03,14,24,27.80
2012,08,03,14,25,27.80
2012,08,03,14,26,27.80
2012,08,03,14,27,27.80
2012,08,03,14,28,27.90
2012,08,03,14,29,27.90
2012,08,03,14,30,27.90
2012,08,03,14,31,27.90
2012,08,03,14,33,27.90
2012,08,03,14,34,27.90
2012,08,03,14,35,27.90
2012,08,03,14,37,27.90
2012,08,03,14,38,27.90
2012,08,03,14,39,27.90
2012,08,03,14,40,28.00
2012,08,03,14,41,28.10
2012,08,03,14,42,28.20
2012,08,03,14,43,28.20
2012,08,03,14,44,28.30
2012,08,03,14,45,28.30
2012,08,03,14,47,28.40
2012,08,03,14,48,28.40
2012,08,03,14,49,28.40
2012,08,03,14,50,28.40
2012,08,03,14,51,28.40
2012,08,03,14,52,28.50
2012,08,03,14,53,28.60
2012,08,03,14,54,28.60
2012,08,03,14,55,28.60
2012,08,03,14,56,28.70
2012,08,03,14,57,28.70
2012,08,03,14,58,28.80
2012,08,03,14,59,28.80
2012,08,03,15,00,28.90
2012,08,03,15,01,28.90
2012,08,03,15,03,29.10
2012,08,03,15,04,29.20
2012,08,03,15,05,29.20
2012,08,03,15,06,29.20
2012,08,03,15,07,29.30
2012,08,03,15,08,29.30
2012,08,03,15,09,29.40
2012,08,03,15,10,29.40
2012,08,03,15,11,29.40
2012,08,03,15,12,29.50
2012,08,03,15,13,29.60
2012,08,03,15,14,29.60
2012,08,03,15,15,29.60
2012,08,03,15,16,29.70
2012,08,03,15,17,29.70
2012,08,03,15,18,29.70
2012,08,03,15,19,29.70
2012,08,03,15,20,29.70
2012,08,03,15,21,29.70
2012,08,03,15,22,29.60
2012,08,03,15,23,29.60
2012,08,03,15,24,29.60
2012,08,03,15,25,29.60
2012,08,03,15,26,29.70
2012,08,03,15,27,29.70
2012,08,03,15,28,29.70
2012,08,03,15,29,29.70
2012,08,03,15,30,29.70
2012,08,03,15,31,29.70
2012,08,03,15,32,29.70
2012,08,03,15,33,29.70
2012,08,03,15,34,29.70
2012,08,03,15,35,29.70
2012,08,03,15,37,29.70
2012,08,03,15,38,29.80
2012,08,03,15,39,29.80
2012,08,03,15,40,29.90
2012,08,03,15,42,30.00
2012,08,03,15,43,30.10
2012,08,03,15,44,30.10
2012,08,03,15,45,30.10
2012,08,03,15,46,30.10
2012,08,03,15,47,30.10
2012,08,03,15,49,30.20
2012,08,03,15,50,30.20
2012,08,03,15,51,30.20
2012,08,03,15,52,30.20
2012,08,03,15,54,30.20
2012,08,03,15,55,30.20
2012,08,03,15,57,30.20
2012,08,03,15,58,30.20
2012,08,03,15,59,30.30
2012,08,03,16,00,30.30
2012,08,03,16,01,30.30
2012,08,03,16,02,30.40
2012,08,03,16,04,30.50
2012,08,03,16,05,30.60
2012,08,03,16,06,30.60
2012,08,03,16,07,30.60
2012,08,03,16,08,30.70
2012,08,03,16,09,30.70
2012,08,03,16,10,30.80
2012,08,03,16,12,30.80
2012,08,03,16,13,30.80
2012,08,03,16,14,30.80
2012,08,03,16,16,30.70
2012,08,03,16,17,30.70
2012,08,03,16,18,30.60
2012,08,03,16,19,30.60
2012,08,03,16,20,30.60
2012,08,03,16,21,30.60
2012,08,03,16,22,30.60
2012,08,03,16,24,30.60
2012,08,03,16,25,30.60
2012,08,03,16,26,30.70
2012,08,03,16,27,30.70
2012,08,03,16,29,30.70
2012,08,03,16,30,30.80
2012,08,03,16,31,30.80
2012,08,03,16,32,30.80
2012,08,03,16,33,30.80
2012,08,03,16,34,30.80
2012,08,03,16,35,30.80
2012,08,03,16,36,30.80
2012,08,03,16,37,30.80
2012,08,03,16,38,30.80
2012,08,03,16,39,30.80
2012,08,03,16,40,30.80
2012,08,03,16,41,30.90
2012,08,03,16,42,30.80
2012,08,03,16,43,30.80
2012,08,03,16,44,30.80
2012,08,03,16,45,30.80
2012,08,03,16,46,30.80
2012,08,03,16,47,30.70
2012,08,03,16,48,30.70
2012,08,03,16,49,30.70
2012,08,03,16,50,30.60
2012,08,03,16,51,30.60
2012,08,03,16,52,30.60
2012,08,03,16,53,30.60
2012,08,03,16,54,30.60
2012,08,03,16,55,30.60
2012,08,03,16,56,30.60
2012,08,03,16,57,30.60
2012,08,03,16,58,30.60
2012,08,03,16,59,30.60
2012,08,03,17,00,30.70
2012,08,03,17,01,30.60
2012,08,03,17,02,30.60
2012,08,03,17,03,30.60
2012,08,03,17,04,30.60
2012,08,03,17,05,30.60
2012,08,03,17,06,30.50
2012,08,03,17,07,30.50
2012,08,03,17,08,30.60
2012,08,03,17,09,30.60
2012,08,03,17,10,30.60
2012,08,03,17,11,30.60
2012,08,03,17,12,30.60
2012,08,03,17,14,30.50
2012,08,03,17,15,30.50
2012,08,03,17,16,30.50
2012,08,03,17,17,30.50
2012,08,03,17,18,30.50
2012,08,03,17,19,30.60
2012,08,03,17,20,30.60
2012,08,03,17,21,30.60
2012,08,03,17,22,30.60
2012,08,03,17,23,30.60
2012,08,03,17,24,30.60
2012,08,03,17,25,30.60
2012,08,03,17,26,30.60
2012,08,03,17,27,30.70
2012,08,03,17,28,30.70
2012,08,03,17,29,30.70
2012,08,03,17,30,30.70
2012,08,03,17,31,30.80
2012,08,03,17,32,30.80
2012,08,03,17,33,30.80
2012,08,03,17,34,30.80
2012,08,03,17,35,30.80
2012,08,03,17,36,30.80
2012,08,03,17,37,30.70
2012,08,03,17,38,30.80
2012,08,03,17,39,30.70
2012,08,03,17,40,30.70
2012,08,03,17,41,30.70
2012,08,03,17,43,30.60
2012,08,03,17,44,30.40
2012,08,03,17,45,30.30
2012,08,03,17,46,30.30
2012,08,03,17,47,30.20
2012,08,03,17,48,30.20
2012,08,03,17,49,30.10
2012,08,03,17,51,30.10
2012,08,03,17,52,30.10
2012,08,03,17,53,30.10
2012,08,03,17,54,30.10
2012,08,03,17,55,30.10
2012,08,03,17,56,30.20
2012,08,03,17,58,30.20
2012,08,03,17,59,30.20
2012,08,03,18,00,30.20
2012,08,03,18,01,30.10
2012,08,03,18,02,30.10
2012,08,03,18,03,30.10
2012,08,03,18,04,30.10
2012,08,03,18,05,30.00
2012,08,03,18,06,30.00
2012,08,03,18,07,29.90
2012,08,03,18,08,29.90
2012,08,03,18,09,29.90
2012,08,03,18,10,29.80
2012,08,03,18,11,29.80
2012,08,03,18,12,29.80
2012,08,03,18,13,29.80
2012,08,03,18,14,29.80
2012,08,03,18,15,29.80
2012,08,03,18,16,29.70
2012,08,03,18,17,29.70
2012,08,03,18,18,29.70
2012,08,03,18,19,29.80
2012,08,03,18,20,29.80
2012,08,03,18,21,29.80
2012,08,03,18,22,29.80
2012,08,03,18,23,29.80
2012,08,03,18,24,29.80
2012,08,03,18,25,29.80
2012,08,03,18,26,29.80
2012,08,03,18,27,29.80
2012,08,03,18,28,29.80
2012,08,03,18,29,29.80
2012,08,03,18,30,29.90
2012,08,03,18,31,29.80
2012,08,03,18,32,29.90
2012,08,03,18,33,29.90
2012,08,03,18,34,29.90
2012,08,03,18,35,29.90
2012,08,03,18,36,29.90
2012,08,03,18,37,29.90
2012,08,03,18,38,29.90
2012,08,03,18,39,30.00
2012,08,03,18,40,30.00
2012,08,03,18,41,30.10
2012,08,03,18,42,30.10
2012,08,03,18,43,30.10
2012,08,03,18,44,30.20
2012,08,03,18,45,30.20
2012,08,03,18,46,30.20
2012,08,03,18,47,30.20
2012,08,03,18,49,30.30
2012,08,03,18,50,30.30
2012,08,03,18,51,30.30
2012,08,03,18,53,30.30
2012,08,03,18,54,30.40
2012,08,03,18,55,30.30
2012,08,03,18,56,30.30
2012,08,03,18,57,30.30
2012,08,03,18,58,30.40
2012,08,03,18,59,30.40
2012,08,03,19,00,30.40
2012,08,03,19,01,30.30
2012,08,03,19,02,30.30
2012,08,03,19,03,30.30
2012,08,03,19,04,30.30
2012,08,03,19,05,30.30
2012,08,03,19,06,30.30
2012,08,03,19,08,30.30
2012,08,03,19,09,30.30
2012,08,03,19,10,30.30
2012,08,03,19,11,30.30
2012,08,03,19,12,30.30
2012,08,03,19,13,30.30
2012,08,03,19,14,30.30
2012,08,03,19,16,30.30
2012,08,03,19,17,30.20
2012,08,03,19,18,30.10
2012,08,03,19,19,30.10
2012,08,03,19,20,29.90
2012,08,03,19,22,29.90
2012,08,03,19,23,29.80
2012,08,03,19,24,29.80